Hourly Data Report for October 01, 2015

All times are specified in Local Standard Time (LST). Add 1 hour to adjust for Daylight Saving Time where and when it is observed.

FREDERICTON
NEW BRUNSWICK

45°52'08.000" N
66°32'14.000" W
20.70 m
8101505
71700
YFC

Download Data

Hourly Data (October 2015)
Hourly Data Report for October 1, 2015
Temp Definition
°C
Dew Point Temp Definition
°C
Rel Hum Definition
%
Wind Dir Definition
10's deg

Wind Spd Definition
km/h
Visibility Definition
km
Stn Press Definition
kPa
Hmdx Definition


Wind Chill Definition


Weather Definition


TIME
00:00 Legend Double Dagger 11.5 9.9 90 36 26 4.8 100.85     Rain,Fog
01:00 Legend Double Dagger 11.1 9.5 90 36 26 6.4 100.98     Rain,Fog
02:00 Legend Double Dagger 11.2 9.6 90 1 26 16.1 101.05     Rain
03:00 Legend Double Dagger 11.1 9.2 88 35 24 16.1 101.17     LegendNANA
04:00 Legend Double Dagger 10.8 8.9 88 35 21 16.1 101.30     LegendNANA
05:00 Legend Double Dagger 10.1 8.4 89 35 22 16.1 101.45     LegendNANA
06:00 Legend Double Dagger 9.6 8.1 90 36 26 16.1 101.48     LegendNANA
07:00 Legend Double Dagger 9.5 7.2 86 36 26 16.1 101.63     LegendNANA
08:00 Legend Double Dagger 9.4 7.1 86 35 22 16.1 101.74     LegendNANA
09:00 Legend Double Dagger 9.9 7.2 83 36 21 16.1 101.85     LegendNANA
10:00 Legend Double Dagger 11.2 7.7 79 1 28 16.1 101.88     LegendNANA
11:00 Legend Double Dagger 11.7 7.2 74 36 26 16.1 101.93     LegendNANA
12:00 Legend Double Dagger 12.4 7.3 71 34 26 16.1 101.96     LegendNANA
13:00 Legend Double Dagger 12.4 7.2 70 1 18 16.1 101.99     LegendNANA
14:00 Legend Double Dagger 12.7 7.2 69 36 22 16.1 102.00     LegendNANA
15:00 Legend Double Dagger 12.4 6.9 69 36 22 16.1 102.08     LegendNANA
16:00 Legend Double Dagger 12.5 7.2 70 35 22 16.1 102.10     LegendNANA
17:00 Legend Double Dagger 12.0 7.5 74 34 15 16.1 102.14     LegendNANA
18:00 Legend Double Dagger 11.6 7.1 74 35 13 16.1 102.21     LegendNANA
19:00 Legend Double Dagger 11.2 6.0 70 2 21 16.1 102.32     LegendNANA
20:00 Legend Double Dagger 10.2 5.4 72 1 17 16.1 102.38     LegendNANA
21:00 Legend Double Dagger 9.7 4.8 71 1 17 16.1 102.39     LegendNANA
22:00 Legend Double Dagger 8.7 4.8 76 35 15 16.1 102.40     LegendNANA
23:00 Legend Double Dagger 7.7 4.3 79 35 15 16.1 102.38     LegendNANA

Notes on Data Quality.

Legend

  • E = Estimated
  • M = Missing
  • NA = Not Available
  • ‡ = Partner data that is not subject to review by the National Climate Archives
Date modified: